STARLINK-34515, 64712

Orbit data source: Space-Track

STARLINK-34515, 64712 is a payload satellite owned by SpaceX/Seattle (US) in LEO that was launched on Sat, 28 Jun 2025 UTC via an FALCON 9 launch vehicle from the Air Force Western Test Range (AFWTR). Payload-class satellites include a variety of spacecraft equipped with specific instruments for various scientific and technological missions. These include communications satellites like Starlink; space stations such as the ISS; scientific satellites like the Hubble; Earth observation satellites from companies like Planet Labs, Umbra, and HawkEye 360; GPS; miniature CubeSats for education and research; and military/defense satellites.

Loading next visibility...
Identifier
64712, 2025-142S
Orbit
LEO
Country
Flag of USUS
Related business
Manufacturer
SpaceX/Seattle
Mission
Operational Commercial Communications
Bus & Motor
STARLINK V2MO, Unknown motor
Mass
575 kg wet, ~530 kg dry
Launch date (UTC)
2025-06-28 (11 months ago)
Launch vehicle
FALCON 9
Launch site
Air Force Western Test Range (AFWTR)
Object type
Payload
Rocket body
Debris
Shape & HBR
Box + 2 Pan, 17.7 m
Radar Cross Section
36.964 m², Large (>1 m²)

Expand to show TLE details & history
Last TLE update: 10 hours ago

TLE from 10 hours ago
0 STARLINK-34515
1 64712U 25142S   26145.32558209  .00003241  00000-0  27928-3 0  9997
2 64712  70.0001 121.0614 0003416 268.6406  91.4362 14.98336611 50946
Epoch: 2026-05-25T07:48Z
TLE epoch observation values (Epoch: 2026-05-25T07:48:50.292Z)
Latitude
-0°
Longitude
120.93686°
Altitude
574.52 km
Speed
7.574 km/s
True Right ascension
08h 04m 14s
True Declination
0° 00' 00"
Sunlit
Object was in daylight at epoch
Visualization orbit readout
Latitude
Unknown
Longitude
Unknown
Altitude
Unknown
Speed
Unknown
Apparent Right ascension
Unknown
Apparent Declination
Unknown
Sunlit
N/A
Visualization observer readout
Local Sidereal Time
03:10:59
Azimuth
Unknown
Elevation
Unknown
Doppler factor
Unknown
Orbital elements
Apogee altitude
572.357 km
Perigee altitude
567.61 km
Semi-major axis
6,948.121 km
Eccentricity
0.00034
Inclination
70.0001°
RAAN
121.0614°
Arg. of periapsis
268.6406°
True anomaly
91.47533°
Mean anomaly
91.4362°
Eccentric anomaly
91.45577°
Mean motion
3.7475 °/min
Orbital period
96.06 mins
BSTAR
0.00027928
Loading maneuver chart data...
Computing Atmospheric mass density...
Loading historical data...
Loading historical data...
Loading historical data...
Loading historical data...
Loading historical data...
Loading historical data...
Loading historical data...

Documentation

Showing up to 5 results
|